Location: Aressy
(43.2833°N, 0.3167°W)
Time: 17:59:13
(UTC+00:00)

Cosmos-2242 - Pass Details

Date: 28 January 2021
Orbit: 591 x 616 km, 82.5° (Epoch: 02 March)

Event Time Altitude Azimuth Distance (km) Brightness Sun altitude
Rises 18:41:24 0° 350° (N) 2,852 6.5 -17.1°
Reaches altitude 10° 18:43:36 10° 349° (N) 1,948 5.6 -17.5°
Maximum altitude 18:47:55 77° 264° (W) 622 3.1 -18.2°
Drops below altitude 10° 18:52:13 10° 178° (S) 1,948 5.7 -19.0°
Sets 18:54:25 0° 177° (S) 2,850 6.5 -19.4°
